Regional Weather Roundup
Issued by NWS

Home | Current Version | Previous Version | Text Only | Print | Product List | Glossary On
Versions: 1 2 3 4 5 6 7 8 9 10 11 12 13 14 15 16 17 18 19 20 21 22 23 24 25 26 27 28 29 30 31 32 33 34 35 36 37 38 39 40 41 42 43 44 45 46 47 48 49 50
000
ASUS43 KMPX 280310
RWRMN
WEATHER ROUNDUP FOR MINNESOTA
NATIONAL WEATHER SERVICE TWIN CITIES/CHANHASSEN MN
1000 PM CDT TUE JUN 27 2017


NOTE: "FAIR" INDICATES FEW OR NO CLOUDS BELOW 12,000 FEET WITH NO
SIGNIFICANT WEATHER AND/OR OBSTRUCTIONS TO VISIBILITY. N/A MEANS
CURRENT SKY AND/OR WEATHER CONDITIONS ARE NOT AVAILABLE.

MNZ060>063-068>070-280400-
   Twin Cities Metro

CITY           SKY/WX    TMP DP  RH WIND       PRES   REMARKS
TWIN CITIES    CLOUDY    71  44  37 SE10G23   29.81F
ST PAUL        PTCLDY    68  47  46 S8        29.83F
CRYSTAL        CLOUDY    70  43  37 SE12      29.79F
BLAINE         CLOUDY    72  45  37 S12       29.81R
LAKEVILLE      CLOUDY    66  46  48 S6        29.82F
EDEN PRAIRIE   CLOUDY    71  45  39 SE13G22   29.78F
SOUTH ST PAUL  PTCLDY    68  44  41 S6        29.83F
LAKE ELMO      FAIR      64  46  52 S7        29.84S
$$
MNZ001>005-007-008-013>017-022>024-027-028-280400-
   Northwest Minnesota

CITY           SKY/WX    TMP DP  RH WIND       PRES   REMARKS
BEMIDJI        MOCLDY    63  46  54 SE8       29.75S
HALLOCK        CLEAR     66  48  52 SE10      29.62F
ROSEAU         PTCLDY    63  52  67 SE8       29.69S
WARROAD        CLOUDY    64  54  68 SE6       29.71S
THIEF RVR FALL MOCLDY    68  47  46 SE10      29.69F
CROOKSTON      CLOUDY    68  46  45 SE16      29.66S
FOSSTON        MOCLDY    64  46  52 SE7       29.71F
DETROIT LAKES  CLOUDY    64  50  59 SE13      29.72F
MOORHEAD       CLOUDY    70  48  46 SE9G16    29.65F
PARK RAPIDS    LGT RAIN  64  49  57 VRB3      29.76S
MAHNOMEN       MOCLDY    64  50  60 SE15      29.70F
$$
MNZ006-009>011-018-025>026-280400-
   North Central Minnesota

CITY           SKY/WX    TMP DP  RH WIND       PRES   REMARKS
BAUDETTE       PTCLDY    62  49  62 SE7       29.73S
FLAG ISLAND    MOCLDY    66  55  68 SE10      29.70S
INTL FALLS     CLEAR     59  46  62 CALM      29.76R
WASKISH        PTCLDY    63  52  67 SE3       29.75S
BIG FORK       CLOUDY    59  46  63 SE3       29.79S
LONGVILLE      CLOUDY    61  48  63 SE3       29.78F
GRAND RAPIDS   CLEAR     62  46  55 SE7       29.82F
CRANE LAKE     PTCLDY    63  45  51 S5        29.80S
ORR            CLEAR     59  43  55 S5        29.78S
COOK           CLEAR     59  46  63 CALM      29.82R
WALKER         FAIR      65  47  51 SE6       29.76S
$$
MNZ012-019>021-037-280400-
   Northeast Minnesota

CITY           SKY/WX    TMP DP  RH WIND       PRES   REMARKS
DULUTH         CLEAR     62  46  55 S5        29.84S
ELY            CLEAR     63  46  55 S3        29.83R
HIBBING        CLEAR     51  46  83 CALM      29.82S
EVELETH        CLEAR     60  37  41 S3        29.84S
DULUTH HARBOR  CLEAR     66  52  59 S7        29.83S
TWO HARBORS    CLOUDY    63  52  67 CALM      29.83R
SILVER BAY     MOCLDY    59  52  77 CALM      29.83R
GRAND MARAIS     N/A     48  44  86 W3        29.83R
G MARAIS ARPRT CLOUDY    61  41  48 SW6       29.86R
$$
MNZ029>031-032-039>041-046>048-054>057-064-280400-
   West Central Minnesota

CITY           SKY/WX    TMP DP  RH WIND       PRES   REMARKS
FERGUS FALLS   CLOUDY    66  52  59 SE10      29.67S
WHEATON        CLOUDY    72  45  37 SE15      29.69R
MORRIS         CLOUDY    72  45  37 S21G26    29.71R
ALEXANDRIA     PTCLDY    61  53  75 E9        29.75R
ELBOW LAKE     CLOUDY    69  48  47 S15       29.71R
WADENA         CLOUDY    63  52  67 E8        29.75S
GLENWOOD       CLOUDY    68  46  45 S14G21    29.74R
APPLETON       CLEAR     72  45  37 SE8       29.73R
BENSON         PTCLDY    72  45  37 S16G25    29.75R
ORTONVILLE     MOCLDY    72  46  40 SE12      29.71R
MADISON        PTCLDY    73  48  40 SE13      29.73R
WILLMAR        FAIR      72  46  40 S15G23    29.77R
$$
MNZ033>034-036-042>043-049>051-058-059-280400-
   Central Minnesota

CITY           SKY/WX    TMP DP  RH WIND       PRES   REMARKS
ST CLOUD       LGT RAIN  64  52  64 S16G22    29.76F
SAUK CENTRE    FAIR      63  50  63 SE8       29.75R
PAYNESVILLE    CLOUDY    67  47  47 SE10G17   29.77R
AITKIN         CLEAR     55  48  76 E3        29.80S
PINE RIVER     CLOUDY    63  46  55 SE8       29.81S
BRAINERD       PTCLDY    63  46  54 VRB5      29.79S
STAPLES        DRIZZLE   64  46  52 SE7       29.76S
LONG PRAIRIE   FAIR      59  52  77 NE7       29.77R
LITTLE FALLS   CLOUDY    64  43  45 CALM      29.80R
LITCHFIELD     CLOUDY    72  48  43 SE8       29.78R
BUFFALO        CLOUDY    68  46  45 SE8       29.79F
MAPLE LAKE     CLOUDY    68  51  53 CALM      29.80R
HUTCHINSON     CLEAR     71  47  43 S10G21    29.79S
$$
MNZ037-044-045-052-053-280400-
   East Central Minnesota

CITY           SKY/WX    TMP DP  RH WIND       PRES   REMARKS
PRINCETON      MOCLDY    66  46  48 SE6       29.79F
MORA           CLEAR     61  45  55 CALM      29.83R
CAMBRIDGE      CLEAR     70  48  46 SE7       29.79S
RUSH CITY      PTCLDY    61  45  55 SE3       29.83R
MOOSE LAKE     PTCLDY    54  48  82 CALM      29.82R
HINCKLEY       FAIR      61  46  59 CALM      29.84R
CLOQUET        CLEAR     61  45  55 CALM      29.84S
MCGREGOR       CLEAR     57  45  62 SE6       29.82F
$$
MNZ071>073-080-081-089-090-097-098-280400-
   Southwest Minnesota

CITY           SKY/WX    TMP DP  RH WIND       PRES   REMARKS
MONTEVIDEO     CLEAR     72  46  40 S10       29.75R
GRANITE FALLS  CLEAR     74  48  40 SE15      29.76R
CANBY          MOCLDY    70  53  54 CALM      29.74R
MARSHALL       CLOUDY    71  54  54 SE10      29.74R
REDWOOD FALLS  PTCLDY    72  47  40 SE16      29.76R
OLIVIA         PTCLDY    70  46  43 SE12      29.77S
PIPESTONE      PTCLDY    73  59  60 S15G22    29.74S
WINDOM         CLOUDY    72  50  46 SE13      29.79R
WORTHINGTON    CLOUDY    72  59  63 SE15      29.77F
JACKSON        CLOUDY    70  52  52 S8G17     29.82R
TRACY          PTCLDY    73  56  55 S10       29.76R
SLAYTON        CLOUDY    72  56  56 SE16G24   29.77R
$$
MNZ065>067-074>077-082>085-091>093-280400-
   South Central Minnesota

CITY           SKY/WX    TMP DP  RH WIND       PRES   REMARKS
MANKATO        CLOUDY    68  48  48 SE14      29.82F
NEW ULM        PTCLDY    70  45  40 SE12G17   29.79S
ST JAMES       CLOUDY    70  48  46 SE10      29.81R
FAIRMONT       PTCLDY    69  51  52 SE16      29.81S
GLENCOE        CLOUDY    72  49  44 SE8       29.79R
FARIBAULT      CLOUDY    70  45  40 SE15      29.82F
OWATONNA       CLOUDY    70  46  43 SE12      29.85F
WASECA         CLOUDY    64  45  48 SE12      29.85F
ALBERT LEA     MOCLDY    68  45  42 SE10      29.87F
$$
MNZ078>079-086>088-094>096-280400-
   Southeast Minnesota

CITY           SKY/WX    TMP DP  RH WIND       PRES   REMARKS
ROCHESTER      MOCLDY    63  46  54 SE10      29.91S
RED WING       PTCLDY    66  43  42 SE9       29.85F
STANTON        CLOUDY    70  44  38 S16G24    29.79F
DODGE CENTER   CLOUDY    64  45  48 S6        29.90S
WINONA         CLOUDY    61  50  67 CALM      29.93R
AUSTIN         PTCLDY    63  46  55 SE3       29.90S
PRESTON        MOCLDY    62  45  53 SE5       29.94R
$$
ABBREVIATIONS USED IN REMARKS
   TC - TEMPERATURES IN CELSIUS
  WCI - WIND CHILL INDEX
   HX - HEAT INDEX
  VSB - VISIBILITY
$$



USA.gov is the U.S. government's official web portal to all federal, state and local government web resources and services.